DNO575 HKJK-HDAM

Flight info

Callsign DNO575
Flight time 2h 5m
Altitude 33000
Route ATUDU1D WAV UM997 ASTAR ASTAR1U
Aircraft A320/M-SDE3FGHIRWY/LB1

Departure

Time 2026-04-26 17:06
Airport Jomo Kenyatta International Airport (HKJK)

Arrival

Time 2026-04-26 19:12
Airport Djibouti-Ambouli Airport (HDAM)
Time Latitude Longitude Altitude Speed Heading
2026-04-26 16:13 -1.32908 36.92379 5317 ft 0 kts 140°
2026-04-26 16:58 -1.32907 36.92378 5316 ft 2 kts 140°
2026-04-26 16:58 -1.32901 36.92372 5314 ft 4 kts 139°
2026-04-26 16:58 -1.32856 36.92322 5324 ft 4 kts 108°
2026-04-26 16:59 -1.32856 36.92298 5320 ft 4 kts 59°
2026-04-26 16:59 -1.32887 36.92267 5324 ft 3 kts 40°
2026-04-26 17:00 -1.32890 36.92265 5321 ft 0 kts 41°
2026-04-26 17:02 -1.32852 36.92255 5319 ft 12 kts 320°
2026-04-26 17:02 -1.32800 36.92204 5324 ft 8 kts 310°
2026-04-26 17:02 -1.32789 36.92166 5326 ft 6 kts 267°
2026-04-26 17:02 -1.32812 36.92121 5321 ft 6 kts 234°
2026-04-26 17:03 -1.32840 36.92082 5328 ft 7 kts 239°
2026-04-26 17:03 -1.32846 36.92035 5330 ft 5 kts 272°
2026-04-26 17:03 -1.32838 36.91976 5334 ft 17 kts 279°
2026-04-26 17:03 -1.32825 36.91867 5336 ft 13 kts 268°
2026-04-26 17:04 -1.32857 36.91800 5335 ft 8 kts 238°
2026-04-26 17:04 -1.32873 36.91753 5340 ft 7 kts 269°
2026-04-26 17:04 -1.32857 36.91719 5337 ft 4 kts 319°
2026-04-26 17:04 -1.32838 36.91705 5339 ft 3 kts 323°
2026-04-26 17:05 -1.32788 36.91668 5337 ft 12 kts 324°
2026-04-26 17:05 -1.32730 36.91678 5335 ft 9 kts 47°
2026-04-26 17:05 -1.32669 36.91759 5334 ft 30 kts 54°
2026-04-26 17:05 -1.32395 36.92135 5320 ft 101 kts 54°
2026-04-26 17:06 -1.31866 36.92859 5310 ft 155 kts 54°
2026-04-26 17:06 -1.31149 36.93857 5399 ft 191 kts 56°
2026-04-26 17:06 -1.30438 36.94948 6171 ft 187 kts 69°
2026-04-26 17:06 -1.30158 36.96213 6922 ft 187 kts 86°
2026-04-26 17:07 -1.30079 36.97530 7488 ft 197 kts 88°
2026-04-26 17:07 -1.30021 36.98981 7562 ft 219 kts 89°
2026-04-26 17:07 -1.29940 37.00560 7719 ft 237 kts 87°
2026-04-26 17:07 -1.29785 37.02290 7722 ft 268 kts 84°
2026-04-26 17:08 -1.29539 37.04197 8095 ft 283 kts 83°
2026-04-26 17:08 -1.29255 37.06212 8650 ft 300 kts 83°
2026-04-26 17:08 -1.28948 37.08250 9548 ft 293 kts 82°
2026-04-26 17:08 -1.28619 37.10309 10207 ft 299 kts 82°
2026-04-26 17:09 -1.28318 37.12361 10801 ft 310 kts 83°
2026-04-26 17:09 -1.28112 37.13811 11150 ft 315 kts 82°
2026-04-26 17:09 -1.27532 37.16702 11797 ft 329 kts 69°
2026-04-26 17:09 -1.26324 37.18712 11925 ft 349 kts 48°
2026-04-26 17:10 -1.24453 37.20344 12107 ft 366 kts 36°
2026-04-26 17:10 -1.22315 37.21763 12530 ft 372 kts 33°
2026-04-26 17:10 -1.20128 37.23169 13020 ft 376 kts 33°
2026-04-26 17:10 -1.17974 37.24690 13608 ft 381 kts 39°
2026-04-26 17:11 -1.15968 37.26431 14199 ft 384 kts 43°
2026-04-26 17:11 -1.14051 37.28308 14788 ft 386 kts 46°
2026-04-26 17:11 -1.12180 37.30259 15371 ft 391 kts 46°
2026-04-26 17:11 -1.10301 37.32225 15951 ft 390 kts 45°
2026-04-26 17:12 -1.06387 37.36044 16895 ft 396 kts 40°
2026-04-26 17:12 -1.04248 37.37800 17367 ft 399 kts 39°
2026-04-26 17:13 -0.99876 37.41282 18315 ft 404 kts 38°
2026-04-26 17:13 -0.97656 37.43019 18753 ft 406 kts 38°
2026-04-26 17:13 -0.93194 37.46517 19593 ft 410 kts 38°
2026-04-26 17:14 -0.90943 37.48293 20002 ft 412 kts 38°
2026-04-26 17:14 -0.86437 37.51868 20780 ft 415 kts 39°
2026-04-26 17:14 -0.84174 37.53668 21135 ft 417 kts 39°
2026-04-26 17:15 -0.79607 37.57295 21872 ft 421 kts 39°
2026-04-26 17:15 -0.77342 37.59090 22202 ft 422 kts 39°
2026-04-26 17:15 -0.75036 37.60919 22540 ft 424 kts 39°
2026-04-26 17:16 -0.72719 37.62755 22870 ft 426 kts 39°
2026-04-26 17:16 -0.70394 37.64595 23202 ft 427 kts 38°
2026-04-26 17:16 -0.68065 37.66439 23511 ft 428 kts 39°
2026-04-26 17:16 -0.65726 37.68294 23821 ft 430 kts 39°
2026-04-26 17:17 -0.63380 37.70158 24113 ft 431 kts 39°
2026-04-26 17:17 -0.61032 37.72025 24402 ft 432 kts 39°
2026-04-26 17:17 -0.58677 37.73894 24671 ft 433 kts 39°
2026-04-26 17:17 -0.56308 37.75772 24905 ft 436 kts 39°
2026-04-26 17:18 -0.53928 37.77658 25167 ft 437 kts 39°
2026-04-26 17:18 -0.51542 37.79551 25414 ft 440 kts 39°
2026-04-26 17:18 -0.49140 37.81458 25669 ft 441 kts 39°
2026-04-26 17:18 -0.46726 37.83371 25893 ft 444 kts 39°
2026-04-26 17:19 -0.41874 37.87216 26370 ft 447 kts 39°
2026-04-26 17:19 -0.39436 37.89150 26577 ft 449 kts 39°
2026-04-26 17:19 -0.36986 37.91095 26795 ft 451 kts 39°
2026-04-26 17:20 -0.34525 37.93046 27006 ft 452 kts 39°
2026-04-26 17:20 -0.32893 37.94339 27141 ft 453 kts 39°
2026-04-26 17:20 -0.29578 37.96965 27400 ft 456 kts 39°
2026-04-26 17:20 -0.27095 37.98937 27598 ft 457 kts 39°
2026-04-26 17:21 -0.24599 38.00916 27772 ft 457 kts 38°
2026-04-26 17:21 -0.22101 38.02894 27934 ft 460 kts 39°
2026-04-26 17:21 -0.19592 38.04885 28131 ft 462 kts 39°
2026-04-26 17:21 -0.17071 38.06886 28314 ft 464 kts 39°
2026-04-26 17:22 -0.14541 38.08893 28539 ft 464 kts 39°
2026-04-26 17:22 -0.12012 38.10897 28820 ft 463 kts 38°
2026-04-26 17:22 -0.09484 38.12899 29090 ft 463 kts 38°
2026-04-26 17:22 -0.06959 38.14901 29350 ft 463 kts 39°
2026-04-26 17:23 -0.04437 38.16903 29599 ft 463 kts 38°
2026-04-26 17:23 -0.01914 38.18906 29849 ft 463 kts 38°
2026-04-26 17:23 0.00607 38.20906 30102 ft 463 kts 38°
2026-04-26 17:23 0.03128 38.22908 30354 ft 463 kts 38°
2026-04-26 17:24 0.05650 38.24909 30608 ft 463 kts 38°
2026-04-26 17:24 0.08171 38.26910 30886 ft 462 kts 38°
2026-04-26 17:24 0.10689 38.28904 31159 ft 461 kts 38°
2026-04-26 17:24 0.13164 38.30867 31415 ft 461 kts 38°
2026-04-26 17:25 0.15675 38.32854 31671 ft 460 kts 38°
2026-04-26 17:25 0.18181 38.34833 31919 ft 459 kts 38°
2026-04-26 17:25 0.20694 38.36821 32193 ft 459 kts 38°
2026-04-26 17:25 0.23190 38.38800 32493 ft 457 kts 39°
2026-04-26 17:26 0.25677 38.40775 32756 ft 457 kts 39°
2026-04-26 17:26 0.28163 38.42751 32931 ft 457 kts 39°
2026-04-26 17:26 0.33145 38.46714 32963 ft 458 kts 39°
2026-04-26 17:27 0.38135 38.50674 32956 ft 458 kts 39°
2026-04-26 17:27 0.43130 38.54630 32954 ft 458 kts 39°
2026-04-26 17:28 0.48123 38.58591 32951 ft 458 kts 39°
2026-04-26 17:28 0.53121 38.62542 32943 ft 458 kts 39°
2026-04-26 17:29 0.57281 38.65836 32943 ft 458 kts 39°
2026-04-26 17:29 0.63119 38.70472 32940 ft 459 kts 39°
2026-04-26 17:30 0.68115 38.74437 32937 ft 458 kts 39°
2026-04-26 17:30 0.73114 38.78401 32932 ft 458 kts 39°
2026-04-26 17:31 0.78109 38.82360 32929 ft 458 kts 39°
2026-04-26 17:31 0.83059 38.86293 32937 ft 458 kts 39°
2026-04-26 17:32 0.88047 38.90248 32949 ft 458 kts 39°
2026-04-26 17:32 0.93036 38.94204 32949 ft 458 kts 39°
2026-04-26 17:33 0.98017 38.98160 32947 ft 457 kts 39°
2026-04-26 17:34 1.05493 39.04079 32943 ft 456 kts 39°
2026-04-26 17:34 1.10467 39.08027 32935 ft 457 kts 39°
2026-04-26 17:35 1.15442 39.11979 32927 ft 457 kts 39°
2026-04-26 17:35 1.20416 39.15928 32920 ft 457 kts 39°
2026-04-26 17:36 1.25392 39.19878 32920 ft 456 kts 39°
2026-04-26 17:36 1.30366 39.23822 32920 ft 457 kts 39°
2026-04-26 17:37 1.35340 39.27768 32916 ft 456 kts 39°
2026-04-26 17:37 1.40309 39.31716 32915 ft 456 kts 39°
2026-04-26 17:38 1.47759 39.37627 32913 ft 455 kts 39°
2026-04-26 17:38 1.52691 39.41532 32904 ft 455 kts 39°
2026-04-26 17:39 1.57643 39.45465 32892 ft 455 kts 39°
2026-04-26 17:39 1.62602 39.49403 32901 ft 455 kts 39°
2026-04-26 17:40 1.65924 39.52035 32897 ft 455 kts 39°
2026-04-26 17:40 1.72516 39.57276 32887 ft 455 kts 39°
2026-04-26 17:41 1.77473 39.61221 32893 ft 455 kts 39°
2026-04-26 17:41 1.82435 39.65154 32896 ft 455 kts 38°
2026-04-26 17:42 1.87397 39.69089 32887 ft 455 kts 38°
2026-04-26 17:42 1.92355 39.73028 32894 ft 455 kts 39°
2026-04-26 17:43 1.97310 39.76968 32903 ft 455 kts 38°
2026-04-26 17:43 2.02261 39.80900 32898 ft 454 kts 38°
2026-04-26 17:44 2.07178 39.84800 32895 ft 454 kts 38°
2026-04-26 17:44 2.12123 39.88726 32894 ft 454 kts 38°
2026-04-26 17:45 2.17065 39.92651 32886 ft 454 kts 38°
2026-04-26 17:45 2.22008 39.96584 32887 ft 454 kts 38°
2026-04-26 17:46 2.26953 40.00511 32886 ft 453 kts 38°
2026-04-26 17:46 2.31891 40.04433 32886 ft 454 kts 38°
2026-04-26 17:47 2.35195 40.07065 32896 ft 454 kts 39°
2026-04-26 17:47 2.40940 40.11637 32889 ft 454 kts 38°
2026-04-26 17:48 2.45885 40.15564 32887 ft 454 kts 38°
2026-04-26 17:48 2.50837 40.19498 32894 ft 455 kts 38°
2026-04-26 17:49 2.55920 40.23254 32889 ft 455 kts 29°
2026-04-26 17:49 2.61850 40.25439 32893 ft 457 kts 14°
2026-04-26 17:50 2.68048 40.26885 32902 ft 457 kts 14°
2026-04-26 17:50 2.74238 40.28352 32891 ft 457 kts 14°
2026-04-26 17:51 2.80429 40.29819 32898 ft 457 kts 14°
2026-04-26 17:51 2.86618 40.31274 32888 ft 457 kts 14°
2026-04-26 17:52 2.92814 40.32730 32886 ft 457 kts 14°
2026-04-26 17:52 2.98997 40.34183 32885 ft 457 kts 14°
2026-04-26 17:53 3.05185 40.35646 32883 ft 457 kts 14°
2026-04-26 17:54 3.14417 40.37821 32881 ft 456 kts 14°
2026-04-26 17:54 3.20598 40.39279 32884 ft 456 kts 14°
2026-04-26 17:55 3.26776 40.40734 32897 ft 456 kts 14°
2026-04-26 17:55 3.32968 40.42196 32896 ft 457 kts 14°
2026-04-26 17:56 3.39160 40.43654 32896 ft 457 kts 14°
2026-04-26 17:57 3.51550 40.46561 32908 ft 457 kts 14°
2026-04-26 17:57 3.57749 40.48030 32911 ft 458 kts 14°
2026-04-26 17:58 3.70145 40.50950 32919 ft 457 kts 14°
2026-04-26 17:59 3.79444 40.53144 32929 ft 458 kts 14°
2026-04-26 17:59 3.85644 40.54604 32935 ft 458 kts 14°
2026-04-26 18:00 3.91842 40.56069 32939 ft 458 kts 14°
2026-04-26 18:00 3.98001 40.57527 32939 ft 457 kts 14°
2026-04-26 18:01 4.04198 40.58968 32943 ft 457 kts 13°
2026-04-26 18:01 4.10460 40.60333 32947 ft 457 kts 13°
2026-04-26 18:02 4.15629 40.61439 32952 ft 457 kts 13°
2026-04-26 18:02 4.22857 40.63018 32955 ft 457 kts 14°
2026-04-26 18:03 4.29075 40.64394 32961 ft 457 kts 13°
2026-04-26 18:03 4.35294 40.65768 32964 ft 458 kts 13°
2026-04-26 18:04 4.41517 40.67138 32970 ft 458 kts 13°
2026-04-26 18:05 4.50845 40.69190 32978 ft 457 kts 14°
2026-04-26 18:05 4.57062 40.70563 32978 ft 457 kts 14°
2026-04-26 18:06 4.63276 40.71933 32996 ft 457 kts 14°
2026-04-26 18:06 4.69485 40.73304 32995 ft 457 kts 14°
2026-04-26 18:07 4.75693 40.74677 32998 ft 457 kts 13°
2026-04-26 18:07 4.81912 40.76041 33002 ft 457 kts 14°
2026-04-26 18:08 4.88079 40.77407 33008 ft 457 kts 14°
2026-04-26 18:08 4.94290 40.78788 33011 ft 457 kts 14°
2026-04-26 18:09 5.00503 40.80161 33015 ft 457 kts 14°
2026-04-26 18:09 5.06716 40.81530 33014 ft 457 kts 14°
2026-04-26 18:10 5.12918 40.82901 33015 ft 456 kts 14°
2026-04-26 18:10 5.19120 40.84282 33018 ft 456 kts 14°
2026-04-26 18:11 5.25320 40.85655 33021 ft 456 kts 14°
2026-04-26 18:11 5.31523 40.87029 33028 ft 456 kts 14°
2026-04-26 18:12 5.37725 40.88398 33035 ft 456 kts 14°
2026-04-26 18:12 5.43923 40.89769 33039 ft 456 kts 14°
2026-04-26 18:13 5.50113 40.91148 33040 ft 455 kts 14°
2026-04-26 18:13 5.56307 40.92526 33047 ft 455 kts 14°
2026-04-26 18:14 5.62498 40.93898 33050 ft 456 kts 14°
2026-04-26 18:14 5.68690 40.95279 33053 ft 455 kts 14°
2026-04-26 18:15 5.74878 40.96650 33054 ft 456 kts 14°
2026-04-26 18:15 5.81029 40.98017 33059 ft 456 kts 14°
2026-04-26 18:16 5.87225 40.99391 33064 ft 456 kts 14°
2026-04-26 18:16 5.96525 41.01455 33076 ft 456 kts 14°
2026-04-26 18:17 6.02722 41.02832 33080 ft 456 kts 14°
2026-04-26 18:17 6.08914 41.04205 33086 ft 456 kts 14°
2026-04-26 18:18 6.15106 41.05577 33093 ft 455 kts 14°
2026-04-26 18:18 6.21300 41.06955 33090 ft 455 kts 14°
2026-04-26 18:19 6.27479 41.08334 33092 ft 455 kts 14°
2026-04-26 18:19 6.33655 41.09715 33095 ft 455 kts 14°
2026-04-26 18:20 6.39835 41.11085 33100 ft 455 kts 14°
2026-04-26 18:20 6.43924 41.11996 33102 ft 455 kts 14°
2026-04-26 18:21 6.52198 41.13849 33105 ft 455 kts 14°
2026-04-26 18:21 6.58377 41.15239 33110 ft 455 kts 14°
2026-04-26 18:22 6.64521 41.16609 33113 ft 455 kts 14°
2026-04-26 18:22 6.70709 41.17982 33116 ft 455 kts 14°
2026-04-26 18:23 6.76891 41.19368 33122 ft 455 kts 14°
2026-04-26 18:23 6.83065 41.20754 33123 ft 454 kts 14°
2026-04-26 18:24 6.89235 41.22137 33129 ft 454 kts 14°
2026-04-26 18:24 6.95416 41.23519 33133 ft 454 kts 14°
2026-04-26 18:25 7.01585 41.24901 33135 ft 454 kts 14°
2026-04-26 18:25 7.07759 41.26289 33140 ft 454 kts 14°
2026-04-26 18:26 7.13926 41.27667 33147 ft 454 kts 14°
2026-04-26 18:26 7.20097 41.29049 33150 ft 454 kts 13°
2026-04-26 18:27 7.26262 41.30430 33152 ft 454 kts 14°
2026-04-26 18:27 7.32434 41.31824 33163 ft 454 kts 14°
2026-04-26 18:28 7.38599 41.33221 33161 ft 454 kts 14°
2026-04-26 18:28 7.44726 41.34596 33177 ft 454 kts 13°
2026-04-26 18:29 7.50931 41.35990 33170 ft 454 kts 14°
2026-04-26 18:29 7.57048 41.37370 33172 ft 453 kts 13°
2026-04-26 18:30 7.63205 41.38752 33180 ft 453 kts 13°
2026-04-26 18:30 7.69356 41.40133 33175 ft 453 kts 13°
2026-04-26 18:31 7.75510 41.41526 33179 ft 453 kts 13°
2026-04-26 18:31 7.81659 41.42913 33185 ft 453 kts 13°
2026-04-26 18:32 7.87809 41.44297 33183 ft 453 kts 13°
2026-04-26 18:32 7.92921 41.45448 33188 ft 452 kts 13°
2026-04-26 18:33 7.99062 41.46833 33186 ft 452 kts 13°
2026-04-26 18:33 8.05199 41.48217 33185 ft 452 kts 13°
2026-04-26 18:34 8.11340 41.49597 33185 ft 452 kts 13°
2026-04-26 18:34 8.17478 41.50984 33182 ft 451 kts 13°
2026-04-26 18:35 8.23603 41.52371 33179 ft 451 kts 13°
2026-04-26 18:35 8.29731 41.53762 33189 ft 451 kts 13°
2026-04-26 18:36 8.35861 41.55148 33180 ft 452 kts 13°
2026-04-26 18:36 8.42000 41.56536 33174 ft 452 kts 13°
2026-04-26 18:37 8.48130 41.57928 33178 ft 452 kts 13°
2026-04-26 18:37 8.54265 41.59322 33175 ft 452 kts 13°
2026-04-26 18:38 8.60367 41.60708 33177 ft 452 kts 13°
2026-04-26 18:38 8.66510 41.62111 33184 ft 452 kts 13°
2026-04-26 18:39 8.72656 41.63515 33180 ft 453 kts 13°
2026-04-26 18:39 8.78803 41.64909 33184 ft 453 kts 13°
2026-04-26 18:40 8.84955 41.66302 33185 ft 453 kts 13°
2026-04-26 18:40 8.91111 41.67698 33178 ft 453 kts 13°
2026-04-26 18:41 8.97263 41.69103 33180 ft 453 kts 13°
2026-04-26 18:41 9.03418 41.70509 33183 ft 454 kts 13°
2026-04-26 18:42 9.09580 41.71912 33191 ft 453 kts 13°
2026-04-26 18:42 9.15737 41.73325 33198 ft 454 kts 13°
2026-04-26 18:43 9.21887 41.74735 33200 ft 453 kts 13°
2026-04-26 18:43 9.28041 41.76135 33199 ft 453 kts 13°
2026-04-26 18:44 9.34189 41.77530 33197 ft 453 kts 13°
2026-04-26 18:44 9.40332 41.78937 33194 ft 453 kts 13°
2026-04-26 18:45 9.46476 41.80341 33189 ft 453 kts 13°
2026-04-26 18:45 9.52625 41.81742 33189 ft 453 kts 13°
2026-04-26 18:46 9.58737 41.83141 33194 ft 453 kts 13°
2026-04-26 18:46 9.64766 41.84959 33191 ft 452 kts 25°
2026-04-26 18:47 9.70134 41.88265 33182 ft 452 kts 33°
2026-04-26 18:47 9.75387 41.91764 33177 ft 452 kts 33°
2026-04-26 18:48 9.80638 41.95260 33174 ft 451 kts 33°
2026-04-26 18:48 9.85817 41.98711 33166 ft 452 kts 33°
2026-04-26 18:49 9.91070 42.02213 33150 ft 452 kts 33°
2026-04-26 18:49 9.96324 42.05710 33145 ft 452 kts 33°
2026-04-26 18:50 10.01585 42.09203 33141 ft 452 kts 33°
2026-04-26 18:50 10.06842 42.12705 33137 ft 452 kts 33°
2026-04-26 18:51 10.12094 42.16217 33134 ft 452 kts 33°
2026-04-26 18:51 10.17354 42.19728 33134 ft 452 kts 33°
2026-04-26 18:52 10.21727 42.22646 33132 ft 453 kts 33°
2026-04-26 18:52 10.27879 42.26757 33130 ft 452 kts 33°
2026-04-26 18:53 10.30503 42.28510 33000 ft 448 kts 33°
2026-04-26 18:53 10.33071 42.30225 32744 ft 436 kts 33°
2026-04-26 18:53 10.35574 42.31899 32499 ft 425 kts 33°
2026-04-26 18:53 10.38020 42.33533 32042 ft 420 kts 33°
2026-04-26 18:54 10.40462 42.35166 31372 ft 420 kts 33°
2026-04-26 18:54 10.42864 42.36773 30811 ft 418 kts 33°
2026-04-26 18:54 10.45283 42.38390 30270 ft 414 kts 34°
2026-04-26 18:54 10.47687 42.39995 29526 ft 416 kts 34°
2026-04-26 18:55 10.50118 42.41619 28756 ft 419 kts 34°
2026-04-26 18:55 10.52548 42.43245 28109 ft 418 kts 34°
2026-04-26 18:55 10.54973 42.44868 27302 ft 420 kts 34°
2026-04-26 18:55 10.57418 42.46506 26549 ft 421 kts 34°
2026-04-26 18:56 10.59859 42.48145 25895 ft 419 kts 34°
2026-04-26 18:56 10.62288 42.49771 25264 ft 416 kts 34°
2026-04-26 18:56 10.64701 42.51379 24636 ft 414 kts 32°
2026-04-26 18:56 10.67242 42.52728 24018 ft 411 kts 26°
2026-04-26 18:57 10.69809 42.53990 23405 ft 408 kts 26°
2026-04-26 18:57 10.71498 42.54822 23016 ft 407 kts 26°
2026-04-26 18:57 10.74884 42.56493 22262 ft 402 kts 26°
2026-04-26 18:57 10.77390 42.57730 21713 ft 399 kts 27°
2026-04-26 18:58 10.79881 42.58960 21182 ft 396 kts 27°
2026-04-26 18:58 10.82355 42.60180 20642 ft 393 kts 27°
2026-04-26 18:58 10.84820 42.61393 19886 ft 396 kts 27°
2026-04-26 18:58 10.87300 42.62615 19232 ft 395 kts 27°
2026-04-26 18:59 10.89769 42.63833 18671 ft 393 kts 27°
2026-04-26 18:59 10.92215 42.65040 18141 ft 390 kts 27°
2026-04-26 18:59 10.94643 42.66236 17609 ft 387 kts 27°
2026-04-26 18:59 10.97025 42.67411 17106 ft 384 kts 27°
2026-04-26 19:00 10.99419 42.68596 16607 ft 381 kts 27°
2026-04-26 19:00 11.01795 42.69772 16117 ft 378 kts 27°
2026-04-26 19:00 11.04153 42.70939 15635 ft 376 kts 27°
2026-04-26 19:00 11.06496 42.72097 15151 ft 373 kts 27°
2026-04-26 19:01 11.08819 42.73246 14668 ft 370 kts 27°
2026-04-26 19:01 11.11126 42.74385 14191 ft 367 kts 27°
2026-04-26 19:01 11.13416 42.75515 13688 ft 364 kts 27°
2026-04-26 19:01 11.15692 42.76641 13197 ft 362 kts 27°
2026-04-26 19:02 11.17947 42.77757 12705 ft 359 kts 27°
2026-04-26 19:02 11.20172 42.78859 12096 ft 352 kts 27°
2026-04-26 19:02 11.22358 42.79944 11157 ft 347 kts 27°
2026-04-26 19:02 11.23792 42.80656 10523 ft 345 kts 27°
2026-04-26 19:03 11.26666 42.82082 9190 ft 342 kts 26°
2026-04-26 19:03 11.28804 42.83139 8189 ft 341 kts 26°
2026-04-26 19:03 11.30935 42.84190 7232 ft 339 kts 26°
2026-04-26 19:03 11.33043 42.85230 6331 ft 335 kts 27°
2026-04-26 19:04 11.35126 42.86262 5447 ft 330 kts 27°
2026-04-26 19:04 11.37175 42.87275 4604 ft 325 kts 27°
2026-04-26 19:04 11.39137 42.88246 4232 ft 306 kts 27°
2026-04-26 19:04 11.40974 42.89152 4098 ft 280 kts 27°
2026-04-26 19:05 11.44432 42.89861 4092 ft 243 kts
2026-04-26 19:05 11.46113 42.89884 4094 ft 241 kts
2026-04-26 19:05 11.47789 42.89908 4044 ft 241 kts
2026-04-26 19:06 11.49459 42.89932 3989 ft 240 kts
2026-04-26 19:06 11.51131 42.89958 3998 ft 240 kts
2026-04-26 19:06 11.52787 42.90036 3992 ft 233 kts 14°
2026-04-26 19:06 11.54158 42.90734 3997 ft 214 kts 46°
2026-04-26 19:07 11.54921 42.91955 4006 ft 201 kts 74°
2026-04-26 19:07 11.55047 42.93339 4034 ft 194 kts 91°
2026-04-26 19:07 11.55026 42.94699 3716 ft 191 kts 90°
2026-04-26 19:07 11.55007 42.96060 3362 ft 192 kts 90°
2026-04-26 19:08 11.54986 42.97413 3306 ft 191 kts 90°
2026-04-26 19:08 11.54965 42.98773 3204 ft 195 kts 90°
2026-04-26 19:08 11.54945 43.00147 2911 ft 193 kts 90°
2026-04-26 19:08 11.54925 43.01503 2627 ft 190 kts 90°
2026-04-26 19:09 11.54908 43.02847 2369 ft 189 kts 90°
2026-04-26 19:09 11.54889 43.04183 2117 ft 188 kts 90°
2026-04-26 19:09 11.54873 43.05509 1866 ft 186 kts 90°
2026-04-26 19:09 11.54856 43.06808 1625 ft 178 kts 90°
2026-04-26 19:10 11.54836 43.08015 1414 ft 161 kts 90°
2026-04-26 19:10 11.54820 43.09098 1189 ft 146 kts 90°
2026-04-26 19:10 11.54804 43.10113 1001 ft 141 kts 90°
2026-04-26 19:10 11.54789 43.11102 813 ft 139 kts 90°
2026-04-26 19:11 11.54779 43.12079 620 ft 137 kts 89°
2026-04-26 19:11 11.54773 43.13048 388 ft 136 kts 90°
2026-04-26 19:11 11.54764 43.14015 199 ft 137 kts 91°
2026-04-26 19:11 11.54749 43.14973 44 ft 127 kts 91°
2026-04-26 19:12 11.54740 43.15618 36 ft 64 kts 90°
2026-04-26 19:12 11.54753 43.15867 33 ft 18 kts 49°
2026-04-26 19:12 11.54850 43.15865 32 ft 12 kts 331°
2026-04-26 19:12 11.54919 43.15827 33 ft 10 kts 336°
2026-04-26 19:13 11.54979 43.15800 32 ft 8 kts 336°
2026-04-26 19:13 11.55027 43.15777 33 ft 7 kts 331°
2026-04-26 19:13 11.55063 43.15756 34 ft 6 kts 330°
2026-04-26 19:13 11.55113 43.15729 34 ft 8 kts 333°
2026-04-26 19:14 11.55158 43.15707 34 ft 7 kts 334°
2026-04-26 19:14 11.55210 43.15682 35 ft 8 kts 333°
2026-04-26 19:14 11.55256 43.15656 35 ft 9 kts 332°
2026-04-26 19:14 11.55279 43.15644 35 ft 14 kts 333°
2026-04-26 19:15 11.55290 43.15491 36 ft 14 kts 243°
2026-04-26 19:15 11.55250 43.15409 37 ft 12 kts 244°
2026-04-26 19:15 11.55217 43.15340 38 ft 10 kts 244°
2026-04-26 19:15 11.55190 43.15284 39 ft 8 kts 244°
2026-04-26 19:16 11.55168 43.15239 39 ft 6 kts 244°
2026-04-26 19:16 11.55152 43.15206 39 ft 5 kts 244°
2026-04-26 19:16 11.55141 43.15182 40 ft 3 kts 244°
2026-04-26 19:16 11.55134 43.15168 40 ft 1 kts 239°
2026-04-26 19:17 11.55132 43.15164 40 ft 0 kts 239°
2026-04-26 19:17 11.55125 43.15153 40 ft 11 kts 239°
2026-04-26 19:17 11.55071 43.15066 39 ft 14 kts 229°
2026-04-26 19:17 11.55017 43.14992 41 ft 12 kts 253°
2026-04-26 19:18 11.55011 43.14916 42 ft 10 kts 270°
2026-04-26 19:18 11.55038 43.14878 43 ft 7 kts
2026-04-26 19:18 11.55081 43.14880 43 ft 5 kts
2026-04-26 19:18 11.55115 43.14880 43 ft 4 kts 358°
2026-04-26 19:19 11.55141 43.14879 43 ft 3 kts 358°
2026-04-26 19:19 11.55143 43.14879 43 ft 0 kts 358°